Location: Hardenberg
(52.5670°N, 6.6170°E)
Time: 08:14:46
(UTC+02:00)

ISS - Pass Details

Date: 22 May 2021
Orbit: 417 x 422 km, 51.6° (Epoch: 12 June)

Event Time Altitude Azimuth Distance (km) Brightness Sun altitude
Rises 22:56:03 0° 270° (W) 2,366 0.6 -9.6°
Reaches altitude 10° 22:58:09 10° 269° (W) 1,502 -0.4 -9.8°
Maximum altitude 23:01:31 76° 184° (S) 437 -3.8 -10.0°
Drops below altitude 10° 23:04:53 10° 98° (E) 1,504 -1.3 -10.3°
Enters shadow 23:05:26 - 98° (E) 1,726 -1.0 -10.4°
